View from above orbital plane
|
View from above satellite
|
Ground track
|
The orbit data is extracted from the following two-line orbital elements,
1 25634U 99008A 21110.53240176 -.00000004 00000-0 17399-4 0 9997
2 25634 98.4250 141.0510 0011377 106.0576 254.1854 14.19393027147040
Epoch (UTC): | 20 April 2021 12:46:39 |
Eccentricity: | 0.0011377 |
inclination: | 98.4250° |
perigee height: | 819 km |
apogee height: | 835 km |
right ascension of ascending node: | 141.0510° |
argument of perigee: | 106.0576° |
revolutions per day: | 14.19393027 |
mean anomaly at epoch: | 254.1854° |
orbit number at epoch: | 14704 |
The dashed part of the orbit path shows where the satellite is in the earth's shadow,
|
|